Location: Krasnoyarskiy Pitomnik
(51.1333°N, 71.6167°E)
Time: 20:14:33
(UTC+00:00)

Envisat - Pass Details

Date: 29 February 2024
Orbit: 762 x 764 km, 98.3° (Epoch: 13 April)

Event Time Altitude Azimuth Distance (km) Brightness Sun altitude
Rises 21:01:06 0° 32° (NNE) 3,242 7.1 -42.2°
Reaches altitude 10° 21:05:29 10° 68° (ENE) 2,307 5.9 -41.8°
Enters shadow 21:05:50 10° 72° (ENE) 2,277 5.9 -41.7°
